Dewpoint
47 46 46 45 45 45 45 45 44 43 42 42 42 41 41 41 42 38 36 38 32 28 26 26 22 20 20 20 22 23 23 22 25 21 18 17 12 9 10 9 12 11 13 14 14 15 12 16 19 21 27 30 30 33
45 45 45 45 45 44 44 43 42 42 41 40 39 38 38 38 37 37 27 31 33 27 26 27 26 25 25 21 21 23 21 16 22 22 23 23 19 18 15 13 8 8 15 17 15 15 16 18 31 29 29 34 34 34
44 44 44 44 43 43 42 42 42 41 40 39 39 39 40 39 40 35 27 28 25 23 21 19 18 22 21 22 25 22 19 19 18 20 25 21 18 14 10 6 15 15 13 17 20 14 20 24 19 26 30 32 31 36
44 43 43 42 42 42 42 42 42 41 41 40 39 39 39 39 39 36 30 32 24 17 30 22 16 16 20 20 19 22 23 24 24 21 21 22 17 18 18 18 17 15 16 16 21 22 21 18 26 28 29 30 34 34
42 43 43 42 42 42 42 42 42 42 41 39 39 38 38 39 40 37 34 32 32 30 29 22 21 22 22 21 20 22 23 22 19 21 25 20 17 19 18 19 16 15 18 22 21 23 26 21 22 26 32 33 33 31
41 42 43 43 43 42 42 42 42 42 42 41 40 39 38 38 38 31 38 31 32 32 33 24 25 22 23 23 23 23 23 24 22 21 21 20 21 24 22 15 14 15 16 14 23 30 30 31 26 30 36 31 30 30
42 42 42 42 42 42 42 42 42 41 41 41 40 38 37 37 34 32 31 32 36 34 32 21 16 18 21 20 26 26 26 24 22 25 24 21 20 26 24 18 17 17 20 25 30 33 34 33 36 36 28 28 29 27
41 41 42 42 42 42 42 42 42 42 41 40 38 37 37 38 37 31 34 35 37 28 24 23 18 21 26 27 32 35 29 27 29 25 23 20 21 24 22 17 19 21 23 28 30 31 35 35 29 27 27 27 26 27
41 41 42 42 42 42 42 42 42 41 39 38 37 35 35 33 34 31 36 37 37 33 31 26 23 27 28 28 30 33 33 27 26 26 23 23 24 23 21 19 22 30 32 33 27 29 29 27 27 27 26 26 26 27
42 42 42 41 41 41 42 42 41 40 39 37 35 35 33 31 36 36 34 32 33 33 30 27 22 27 25 30 30 32 32 27 27 26 25 28 22 21 21 22 31 30 28 27 26 27 27 27 26 27 26 26 26 27
42 42 42 42 42 42 42 41 40 39 37 33 33 33 32 36 35 32 29 28 27 27 26 24 22 25 31 27 29 31 27 28 24 28 27 25 25 33 27 27 28 28 28 27 28 28 28 27 26 25 25 26 26 26
43 42 42 42 42 42 41 40 38 37 35 34 34 32 34 33 30 24 25 24 23 22 22 24 26 28 30 31 28 27 24 26 20 31 26 21 32 28 27 27 28 28 27 26 26 26 26 26 26 26 25 26 28 28
42 41 41 41 41 39 39 37 38 39 39 37 33 31 30 28 21 20 19 20 24 26 28 31 30 29 34 32 28 26 24 22 25 27 20 26 31 29 30 31 31 29 28 27 27 27 28 27 29 30 29 29 29 28
41 41 40 40 39 39 39 37 37 37 34 31 25 20 23 24 23 23 29 30 32 30 28 28 28 26 29 27 27 22 23 24 21 17 19 29 33 34 32 32 31 31 33 31 29 31 31 30 29 30 31 33 31 28
41 40 40 39 39 38 37 36 36 37 35 26 25 20 23 26 29 31 32 31 29 27 27 28 28 28 27 26 25 22 20 18 17 22 29 31 32 32 31 30 30 32 32 30 29 30 32 31 30 28 30 31 31 30
38 36 32 39 38 37 37 37 37 36 31 27 24 24 28 28 32 33 31 31 32 31 31 30 26 24 22 21 18 19 15 13 25 30 32 32 33 34 30 30 30 29 28 28 28 27 26 29 27 26 27 29 30 30
35 32 38 37 38 39 40 37 36 29 25 23 27 30 32 29 30 33 33 31 33 31 29 26 23 20 22 19 17 21 24 28 29 29 30 28 28 30 29 29 28 26 26 27 26 25 25 25 25 25 23 25 25 25
32 39 41 41 39 39 38 35 30 27 23 25 26 32 32 32 29 31 34 33 30 28 26 24 27 21 21 14 16 26 30 29 29 30 28 26 25 25 25 25 26 25 25 26 25 25 26 27 26 25 24 26 24 24
34 37 38 38 37 34 28 29 29 24 23 26 28 28 30 33 33 33 34 32 31 30 32 28 22 19 20 26 29 32 31 29 27 28 28 27 25 24 23 24 24 23 22 20 21 23 23 22 24 23 25 23 22 19
35 34 35 36 35 29 22 24 27 25 22 25 26 26 27 28 31 36 35 33 31 34 30 27 21 25 30 31 30 30 29 28 25 25 24 30 30 29 21 19 19 18 17 17 18 22 18 17 17 19 20 19 19 20
34 36 36 34 29 27 25 23 22 25 25 24 25 26 26 28 31 33 33 31 31 26 22 26 30 32 31 30 28 28 27 25 22 22 21 21 23 20 20 21 21 20 18 19 20 20 21 21 20 19 23 24 23 22
34 35 30 30 26 24 24 24 22 23 21 23 23 23 24 31 32 30 31 28 27 29 31 31 30 30 28 28 26 25 24 21 20 19 21 21 19 18 19 20 21 21 20 21 19 20 19 17 19 19 22 22 19 18
33 32 29 28 26 27 24 25 23 22 20 22 23 20 21 24 24 26 23 23 26 31 30 29 30 28 27 28 26 24 23 18 16 16 16 16 16 17 17 18 19 19 18 17 17 17 18 18 18 20 19 19 18 18
32 29 30 26 24 23 26 25 24 21 22 20 19 18 18 23 22 20 17 20 29 27 24 24 24 23 24 24 22 27 25 17 14 14 14 14 14 13 11 10 12 14 14 15 16 18 19 20 17 17 17 16 16 16
25 25 28 22 26 25 23 23 22 19 20 21 17 19 21 22 20 16 16 23 27 27 25 23 21 20 19 18 17 19 22 17 13 12 12 10 10 10 9 8 9 11 15 20 18 17 17 16 15 14 14 14 14 13
21 26 24 22 23 21 20 19 21 21 18 19 20 19 22 21 17 16 16 28 29 26 28 25 24 21 17 16 18 16 16 14 12 9 8 10 9 11 13 13 14 14 15 18 17 15 14 13 13 13 12 12 11 12
19 22 22 23 22 21 21 23 19 20 19 19 19 21 20 16 15 19 27 27 25 26 25 23 22 19 16 16 17 16 15 14 13 12 12 12 11 12 17 18 16 17 16 15 16 15 14 13 12 12 12 13 14 14
22 23 22 23 22 19 20 20 21 20 21 20 19 19 17 16 16 28 27 26 28 24 22 21 19 17 16 15 16 16 16 16 17 17 14 13 13 17 19 18 16 15 15 16 16 16 15 14 13 13 13 12 12 14
23 23 22 24 23 23 22 21 21 20 21 23 23 20 21 23 30 28 26 25 25 24 22 22 22 21 19 18 18 17 18 17 14 11 9 11 12 14 16 15 15 16 17 16 15 15 15 15 15 14 14 14 15 16
23 23 24 23 21 20 27 27 31 32 26 26 26 25 23 31 32 30 27 26 24 25 25 25 25 22 20 17 16 15 18 19 18 14 10 9 11 14 15 15 15 15 15 15 14 14 14 14 14 14 14 15 16 16
25 27 26 24 22 29 31 30 29 28 28 26 31 26 25 28 29 30 27 27 27 25 24 22 20 19 17 15 15 14 14 18 15 12 13 14 15 14 14 14 14 14 15 15 13 13 12 13 13 13 13 13 14 15
27 25 23 21 23 27 27 26 26 25 25 24 23 26 23 21 19 25 25 24 23 21 20 20 20 21 19 18 18 17 13 15 14 15 12 13 12 13 13 13 14 14 13 12 12 12 13 12 12 12 13 12 13 13
26 26 26 24 23 23 25 23 21 19 21 19 20 21 20 19 16 25 25 25 23 21 21 21 22 21 18 16 15 16 12 16 14 14 15 13 11 13 12 12 12 12 11 11 11 12 11 10 11 10 10 10 11 11
Lifted_Index
3 4 6 7 8 9 10 10 11 11 12 13 14 15 15 16 16 16 16 16 15 15 15 14 14 13 13 12 12 12 11 10 10 9 7 6 4 3 2 1 0 -0 -0 -0 -0 -0 -0 -0 0 1 1 2 2 2
6 7 8 9 9 10 11 12 12 12 14 15 16 17 17 17 17 17 17 17 16 15 15 15 15 14 14 13 11 11 10 9 8 7 6 4 3 2 1 1 0 -0 -0 -0 -0 -0 -0 -0 0 1 2 2 2 3
9 9 10 11 12 12 13 14 15 15 16 17 18 18 18 18 17 17 17 17 16 16 15 15 15 14 13 12 11 9 8 7 6 5 4 3 2 1 1 0 0 0 -0 -0 -0 -0 0 0 1 2 2 3 3 3
11 11 12 13 14 15 15 15 16 16 17 17 18 18 18 17 17 16 17 16 16 15 14 14 14 13 11 10 9 7 6 5 4 3 3 2 1 1 1 1 0 0 0 0 0 1 1 2 2 3 3 3 3 3
13 13 14 15 15 15 15 15 15 16 16 17 17 17 17 17 16 16 16 16 15 14 12 12 11 10 8 7 6 5 4 4 3 3 2 2 1 1 1 1 1 1 1 1 1 1 2 2 3 3 3 3 3 3
15 14 15 15 15 15 15 15 15 15 16 16 17 17 17 16 15 15 14 15 14 12 10 8 7 7 6 5 5 4 4 3 3 2 2 2 2 2 2 2 2 2 2 2 2 2 2 2 3 3 3 3 4 4
15 15 15 15 15 15 15 15 15 15 16 16 16 16 16 15 14 14 14 13 12 10 7 6 5 5 5 4 4 3 3 3 3 3 3 3 3 3 3 3 3 2 2 2 2 2 3 3 3 3 4 4 4 5
15 15 15 15 14 14 14 14 14 15 15 15 15 15 14 14 13 13 13 12 10 7 5 4 4 4 4 4 3 3 3 4 3 3 3 3 3 3 3 3 3 2 2 3 3 3 3 3 3 4 4 5 5 5
14 14 14 14 14 14 13 13 13 14 14 14 14 13 13 12 12 11 11 9 7 5 4 3 3 3 3 3 3 3 4 4 4 3 4 4 3 3 3 3 2 2 2 3 3 3 3 3 4 4 4 5 5 5
13 13 13 13 13 13 12 12 12 13 13 12 12 11 11 10 10 9 7 6 5 5 4 3 3 3 3 3 3 3 3 3 3 3 3 3 2 2 2 2 2 2 3 3 3 4 4 4 4 4 5 5 5 5
12 12 12 12 12 12 11 11 12 12 11 10 10 10 10 9 8 7 6 5 4 4 4 3 3 3 3 3 3 3 3 3 2 2 2 2 1 1 2 2 3 3 4 4 4 4 5 5 5 5 5 6 6 6
11 11 11 11 11 11 11 11 11 11 10 9 9 9 9 8 7 6 5 4 4 3 3 3 3 3 3 3 3 3 3 2 2 1 1 1 1 1 2 2 3 4 4 4 5 5 5 5 5 5 6 6 7 7
11 11 11 11 11 11 11 11 11 10 10 9 9 8 8 7 6 5 4 3 3 3 3 3 3 3 3 3 3 3 2 2 1 1 1 1 1 1 2 3 3 4 4 4 4 5 5 5 5 5 6 6 7 7
11 11 11 11 11 11 11 11 11 10 9 9 8 8 7 6 5 4 4 3 3 3 3 3 3 3 3 3 3 2 2 1 1 1 1 1 1 2 2 3 3 4 4 4 4 4 5 5 5 5 6 7 7 7
11 11 11 11 11 11 11 11 10 10 9 9 8 7 6 6 5 5 4 3 3 3 3 3 3 3 3 3 2 2 1 1 1 1 1 1 2 2 3 3 4 4 4 4 4 4 4 4 5 5 6 6 6 6
11 11 11 11 11 10 10 10 9 9 9 9 8 7 6 6 5 5 5 4 3 3 3 3 3 2 2 2 2 1 1 0 0 1 1 2 2 3 3 4 4 4 4 4 4 4 5 5 5 6 6 6 6 6
11 10 10 10 10 10 9 9 8 8 8 8 7 7 6 6 6 6 5 4 3 3 3 3 2 2 2 1 1 1 0 1 1 1 2 2 3 3 4 4 4 5 5 5 5 5 5 6 6 6 6 6 6 6
10 10 9 9 9 9 8 8 8 8 8 7 7 6 6 6 6 6 5 4 4 3 3 2 2 2 2 1 1 1 1 1 1 2 3 3 4 4 5 5 5 6 6 6 6 6 6 7 7 7 7 7 7 7
11 10 10 10 9 9 8 8 8 8 7 7 6 6 6 5 5 5 4 4 3 3 3 3 2 2 2 1 1 1 1 2 2 3 3 4 4 5 6 6 6 7 7 7 7 7 7 7 7 7 7 8 8 8
12 12 11 11 10 9 9 8 8 8 7 7 6 6 5 5 4 4 3 3 3 3 3 3 3 2 2 2 2 2 2 3 3 3 4 4 5 6 6 7 7 7 7 8 8 8 8 8 8 8 8 9 9 9
12 12 12 11 11 10 9 9 8 8 7 6 6 5 5 4 4 3 3 3 3 3 3 3 3 3 3 3 3 3 4 4 4 4 5 5 6 6 7 7 7 8 8 8 8 8 8 8 8 9 9 10 10 10
12 12 12 11 11 10 10 9 8 7 7 6 6 5 5 4 4 3 3 3 3 3 3 3 3 4 4 4 4 4 5 5 5 6 7 7 7 7 8 8 8 8 8 8 8 8 8 8 9 9 10 10 11 11
12 12 12 11 11 10 10 9 8 8 7 6 5 5 5 4 4 4 4 4 4 4 4 4 5 5 5 5 5 5 6 7 7 8 8 8 8 8 8 8 8 8 8 8 8 8 8 8 9 9 9 10 10 11
12 12 11 11 11 10 9 9 8 7 6 6 5 5 5 5 5 5 4 4 4 4 5 5 6 6 6 6 6 6 7 8 8 9 9 9 9 9 8 8 8 8 8 8 8 8 8 8 9 9 10 10 10 10
11 11 11 10 10 9 9 8 7 6 6 6 5 5 6 6 5 5 5 4 5 5 6 6 7 6 6 6 7 7 8 9 9 10 9 9 9 9 8 8 8 8 8 8 8 8 9 9 10 10 10 10 10 10
10 10 10 10 10 9 8 7 7 6 6 6 6 6 6 6 5 5 5 5 5 6 7 7 7 7 7 7 8 8 9 10 10 10 10 9 9 9 9 9 8 9 9 9 9 10 10 10 10 11 10 10 10 10
9 10 10 10 10 9 9 8 7 7 6 6 6 6 6 6 5 6 6 6 7 7 8 8 8 8 8 9 9 10 11 11 11 10 10 10 10 10 10 9 9 10 10 11 11 11 11 11 11 11 10 10 10 10
10 10 10 10 10 10 9 8 8 7 7 7 6 6 6 6 6 6 7 7 8 8 8 8 8 9 10 10 10 11 12 12 11 10 10 10 10 11 11 11 11 11 12 12 12 12 12 12 11 11 10 10 9 10
11 11 10 9 9 9 9 8 8 8 8 8 7 6 6 7 7 7 8 8 8 9 9 9 10 10 10 11 11 12 13 12 11 10 10 10 11 12 12 12 13 13 13 13 13 13 12 12 12 11 10 10 9 9
11 11 10 9 8 8 9 9 9 9 9 8 8 7 7 8 8 8 9 9 9 9 10 10 11 11 11 11 12 13 13 12 11 11 11 11 12 12 13 13 13 14 14 13 13 12 12 12 11 10 10 9 9 9
11 11 10 9 8 9 9 9 9 9 9 9 8 8 8 8 8 9 10 10 10 11 11 11 11 11 12 12 13 13 13 13 12 12 12 12 12 13 13 13 13 13 13 13 12 12 11 11 10 10 9 8 8 8
11 10 9 8 8 9 10 9 9 9 9 8 8 8 8 7 7 9 10 11 12 12 12 13 13 13 13 13 14 14 14 13 13 13 13 13 13 13 13 13 13 13 12 12 11 11 11 10 10 9 9 8 8 8
10 10 9 8 8 9 9 9 9 9 8 8 8 8 8 7 7 8 11 12 12 13 13 14 14 13 14 14 15 15 14 13 13 13 13 13 13 13 12 12 12 12 11 11 11 10 10 10 9 9 8 8 8 8